| time (UTC) | temp F | wind direction | speed MPH | gust MPH | rain 1hr in | rain 24hr in | rain mn in | humidity % | barometer mb |
| 20260505204357 | 81 | 67 | 0.0 | 8.0 | 0.00 | 0.00 | 0.00 | 88 | 1012.8 |
| 20260505203855 | 82 | 139 | 2.0 | 6.0 | 0.00 | 0.00 | 0.00 | 88 | 1012.8 |
| 20260505203351 | 82 | 233 | 0.0 | 7.0 | 0.00 | 0.00 | 0.00 | 87 | 1013.0 |
| 20260505202847 | 81 | 236 | 0.0 | 5.0 | 0.00 | 0.00 | 0.00 | 88 | 1012.8 |
| 20260505202343 | 80 | 225 | 3.0 | 5.0 | 0.00 | 0.00 | 0.00 | 89 | 1013.1 |
| 20260505201840 | 80 | 228 | 2.0 | 4.0 | 0.00 | 0.00 | 0.00 | 89 | 1013.2 |
| 20260505201337 | 81 | 215 | 1.0 | 5.0 | 0.00 | 0.00 | 0.00 | 88 | 1013.2 |
| 20260505200836 | 81 | 269 | 2.0 | 7.0 | 0.00 | 0.00 | 0.00 | 87 | 1013.3 |
| 20260505200332 | 81 | 67 | 0.0 | 5.0 | 0.00 | 0.00 | 0.00 | 88 | 1013.4 |
| 20260505195828 | 81 | 227 | 3.0 | 5.0 | 0.00 | 0.00 | 0.00 | 89 | 1013.1 |
| 20260505195325 | 81 | 231 | 2.0 | 8.0 | 0.00 | 0.00 | 0.00 | 88 | 1013.2 |
| 20260505194822 | 81 | 199 | 2.0 | 12.0 | 0.00 | 0.00 | 0.00 | 88 | 1013.3 |
| 20260505194319 | 82 | 221 | 1.0 | 6.0 | 0.00 | 0.00 | 0.00 | 87 | 1013.3 |
| 20260505193814 | 82 | 163 | 2.0 | 3.0 | 0.00 | 0.00 | 0.00 | 88 | 1013.5 |
| 20260505193313 | 81 | 271 | 3.0 | 6.0 | 0.00 | 0.00 | 0.00 | 87 | 1013.3 |
| 20260505192810 | 82 | 260 | 3.0 | 5.0 | 0.00 | 0.00 | 0.00 | 87 | 1013.4 |
| 20260505192310 | 82 | 214 | 2.0 | 5.0 | 0.00 | 0.00 | 0.00 | 88 | 1013.5 |
| 20260505191806 | 80 | 260 | 0.0 | 7.0 | 0.00 | 0.00 | 0.00 | 91 | 1013.7 |
| 20260505191304 | 79 | 155 | 2.0 | 5.0 | 0.00 | 0.00 | 0.00 | 92 | 1013.6 |
| 20260505190800 | 79 | 218 | 2.0 | 9.0 | 0.00 | 0.00 | 0.00 | 91 | 1013.5 |
| 20260505190256 | 80 | 142 | 1.0 | 6.0 | 0.00 | 0.00 | 0.00 | 91 | 1013.5 |
| 20260505185752 | 80 | 300 | 1.0 | 7.0 | 0.00 | 0.00 | 0.00 | 90 | 1013.9 |
| 20260505185248 | 80 | 123 | 1.0 | 5.0 | 0.00 | 0.00 | 0.00 | 91 | 1013.8 |
| 20260505184744 | 79 | 240 | 6.0 | 9.0 | 0.00 | 0.00 | 0.00 | 91 | 1013.6 |
| 20260505184242 | 79 | 121 | 2.0 | 4.0 | 0.00 | 0.00 | 0.00 | 92 | 1014.0 |
| 20260505183738 | 79 | 215 | 1.0 | 5.0 | 0.00 | 0.00 | 0.00 | 92 | 1013.9 |
| 20260505183236 | 79 | 208 | 3.0 | 6.0 | 0.00 | 0.00 | 0.00 | 93 | 1013.9 |
| 20260505182732 | 79 | 212 | 0.0 | 5.0 | 0.00 | 0.00 | 0.00 | 93 | 1014.0 |
| 20260505182229 | 79 | 335 | 1.0 | 3.0 | 0.00 | 0.00 | 0.00 | 94 | 1014.2 |
| 20260505181725 | 79 | 203 | 1.0 | 5.0 | 0.00 | 0.00 | 0.00 | 92 | 1014.2 |
| 20260505181223 | 79 | 237 | 2.0 | 5.0 | 0.00 | 0.00 | 0.00 | 91 | 1014.0 |
| 20260505180720 | 80 | 302 | 2.0 | 4.0 | 0.00 | 0.00 | 0.00 | 89 | 1014.0 |
| 20260505180217 | 80 | 145 | 1.0 | 4.0 | 0.00 | 0.00 | 0.00 | 89 | 1013.8 |
| 20260505175713 | 80 | 189 | 1.0 | 7.0 | 0.00 | 0.00 | 0.00 | 89 | 1013.8 |
| 20260505175209 | 80 | 156 | 2.0 | 6.0 | 0.00 | 0.00 | 0.00 | 90 | 1014.1 |
| 20260505174706 | 79 | 266 | 1.0 | 10.0 | 0.00 | 0.00 | 0.00 | 91 | 1014.0 |
| 20260505174203 | 79 | 219 | 1.0 | 7.0 | 0.00 | 0.00 | 0.00 | 91 | 1014.0 |
| 20260505173659 | 78 | 230 | 1.0 | 7.0 | 0.00 | 0.00 | 0.00 | 92 | 1014.1 |
| 20260505173155 | 79 | 317 | 2.0 | 7.0 | 0.00 | 0.00 | 0.00 | 91 | 1014.4 |
| 20260505172653 | 79 | 243 | 0.0 | 6.0 | 0.00 | 0.00 | 0.00 | 91 | 1014.0 |
| 20260505172150 | 79 | 204 | 1.0 | 11.0 | 0.00 | 0.00 | 0.00 | 91 | 1014.1 |
| 20260505171649 | 79 | 211 | 0.0 | 6.0 | 0.00 | 0.00 | 0.00 | 92 | 1014.3 |
| 20260505171147 | 80 | 199 | 2.0 | 7.0 | 0.00 | 0.00 | 0.00 | 89 | 1014.4 |
| 20260505170644 | 79 | 257 | 3.0 | 4.0 | 0.00 | 0.00 | 0.00 | 90 | 1014.4 |
| 20260505170140 | 79 | 273 | 0.0 | 3.0 | 0.00 | 0.00 | 0.00 | 91 | 1014.5 |
| 20260505165635 | 79 | 191 | 2.0 | 6.0 | 0.00 | 0.00 | 0.00 | 91 | 1014.4 |
| 20260505165132 | 78 | 129 | 6.0 | 9.0 | 0.00 | 0.00 | 0.00 | 91 | 1014.3 |
| 20260505164627 | 79 | 226 | 2.0 | 5.0 | 0.00 | 0.00 | 0.00 | 91 | 1014.3 |
| 20260505164125 | 79 | 215 | 2.0 | 10.0 | 0.00 | 0.00 | 0.00 | 90 | 1014.3 |
| 20260505163623 | 79 | 236 | 1.0 | 6.0 | 0.00 | 0.00 | 0.00 | 90 | 1014.2 |
| 20260505163120 | 79 | 222 | 0.0 | 4.0 | 0.00 | 0.00 | 0.00 | 89 | 1014.2 |
| 20260505162617 | 79 | 149 | 1.0 | 5.0 | 0.00 | 0.00 | 0.00 | 89 | 1014.2 |
| 20260505162115 | 79 | 260 | 1.0 | 4.0 | 0.00 | 0.00 | 0.00 | 89 | 1014.3 |
| 20260505161612 | 79 | 250 | 2.0 | 5.0 | 0.00 | 0.00 | 0.00 | 90 | 1014.4 |
| 20260505161109 | 79 | 213 | 1.0 | 5.0 | 0.00 | 0.00 | 0.00 | 90 | 1014.3 |
| 20260505160607 | 78 | 226 | 3.0 | 7.0 | 0.00 | 0.00 | 0.00 | 89 | 1014.1 |
| 20260505160104 | 79 | 84 | 2.0 | 5.0 | 0.00 | 0.00 | 0.00 | 88 | 1014.0 |
| 20260505153044 | 80 | 184 | 1.0 | 4.0 | 0.00 | 0.00 | 0.00 | 86 | 1013.9 |
| 20260505152540 | 79 | 244 | 0.0 | 8.0 | 0.00 | 0.00 | 0.00 | 87 | 1014.0 |
| 20260505152036 | 79 | 272 | 4.0 | 5.0 | 0.00 | 0.00 | 0.00 | 87 | 1013.8 |
| 20260505151531 | 79 | 255 | 0.0 | 3.0 | 0.00 | 0.00 | 0.00 | 88 | 1013.9 |
| 20260505151029 | 79 | 190 | 2.0 | 7.0 | 0.00 | 0.00 | 0.00 | 88 | 1013.9 |
| 20260505150525 | 80 | 224 | 0.0 | 5.0 | 0.00 | 0.00 | 0.00 | 87 | 1013.9 |
| 20260505140450 | 77 | 225 | 3.0 | 5.0 | 0.00 | 0.00 | 0.00 | 92 | 1014.1 |
| 20260505124903 | 75 | 232 | 0.0 | 3.0 | 0.00 | 0.00 | 0.00 | 95 | 1013.7 |
| 20260505124401 | 74 | 116 | 3.0 | 6.0 | 0.00 | 0.00 | 0.00 | 95 | 1013.5 |
| 20260505123856 | 74 | 191 | 2.0 | 5.0 | 0.00 | 0.00 | 0.00 | 95 | 1013.6 |
| 20260505123353 | 74 | 195 | 0.0 | 3.0 | 0.00 | 0.00 | 0.00 | 95 | 1013.4 |
| 20260505122849 | 74 | 166 | 2.0 | 5.0 | 0.00 | 0.00 | 0.00 | 95 | 1013.3 |
| 20260505122347 | 74 | 315 | 0.0 | 4.0 | 0.00 | 0.00 | 0.00 | 95 | 1013.3 |
| 20260505121843 | 74 | 140 | 4.0 | 9.0 | 0.00 | 0.00 | 0.00 | 95 | 1013.1 |
| 20260505121340 | 74 | 154 | 3.0 | 8.0 | 0.00 | 0.00 | 0.00 | 95 | 1013.4 |
| 20260505120836 | 74 | 203 | 1.0 | 5.0 | 0.00 | 0.00 | 0.00 | 95 | 1013.4 |
| 20260505120332 | 74 | 183 | 0.0 | 3.0 | 0.00 | 0.00 | 0.00 | 95 | 1013.5 |
| 20260505115831 | 74 | 123 | 1.0 | 3.0 | 0.00 | 0.00 | 0.00 | 95 | 1013.7 |
| 20260505115329 | 74 | 142 | 0.0 | 5.0 | 0.00 | 0.00 | 0.00 | 95 | 1013.3 |
| 20260505114826 | 74 | 114 | 1.0 | 5.0 | 0.00 | 0.00 | 0.00 | 95 | 1013.4 |
| 20260505114323 | 73 | 119 | 1.0 | 5.0 | 0.00 | 0.00 | 0.00 | 95 | 1013.3 |
| 20260505113819 | 73 | 160 | 1.0 | 7.0 | 0.00 | 0.00 | 0.00 | 95 | 1013.6 |
| 20260505113315 | 73 | 132 | 0.0 | 7.0 | 0.00 | 0.00 | 0.00 | 95 | 1013.1 |
| 20260505112811 | 73 | 222 | 4.0 | 5.0 | 0.00 | 0.00 | 0.00 | 95 | 1013.4 |
| 20260505112309 | 73 | 234 | 0.0 | 3.0 | 0.00 | 0.00 | 0.00 | 95 | 1013.2 |
| 20260505111805 | 73 | 192 | 1.0 | 3.0 | 0.00 | 0.00 | 0.00 | 95 | 1013.4 |
| 20260505111300 | 73 | 152 | 0.0 | 3.0 | 0.00 | 0.00 | 0.00 | 95 | 1013.3 |
| 20260505110756 | 73 | 261 | 0.0 | 3.0 | 0.00 | 0.00 | 0.00 | 95 | 1013.5 |
| 20260505110254 | 73 | 175 | 0.0 | 3.0 | 0.00 | 0.00 | 0.00 | 94 | 1013.6 |
| 20260505101728 | 73 | 100 | 0.0 | 4.0 | 0.00 | 0.00 | 0.00 | 94 | 1013.3 |
| 20260505101224 | 73 | 179 | 2.0 | 6.0 | 0.00 | 0.00 | 0.00 | 94 | 1013.3 |
| 20260505100720 | 73 | 129 | 3.0 | 3.0 | 0.00 | 0.00 | 0.00 | 94 | 1013.1 |
| 20260505100217 | 73 | 125 | 5.0 | 9.0 | 0.00 | 0.00 | 0.00 | 94 | 1013.3 |
| 20260505095712 | 73 | 221 | 1.0 | 4.0 | 0.00 | 0.00 | 0.00 | 94 | 1013.2 |
| 20260505095211 | 73 | 178 | 2.0 | 4.0 | 0.00 | 0.00 | 0.00 | 94 | 1013.3 |
| 20260505094706 | 73 | 233 | 2.0 | 4.0 | 0.00 | 0.00 | 0.00 | 94 | 1013.3 |
| 20260505094203 | 73 | 242 | 0.0 | 5.0 | 0.00 | 0.00 | 0.00 | 94 | 1013.5 |
| 20260505093659 | 73 | 127 | 0.0 | 2.0 | 0.00 | 0.00 | 0.00 | 94 | 1013.6 |
| 20260505093157 | 73 | 131 | 1.0 | 3.0 | 0.00 | 0.00 | 0.00 | 94 | 1013.6 |
| 20260505092653 | 73 | 212 | 1.0 | 3.0 | 0.00 | 0.00 | 0.00 | 94 | 1013.5 |
| 20260505092152 | 73 | 209 | 0.0 | 3.0 | 0.00 | 0.00 | 0.00 | 94 | 1013.6 |
| 20260505091649 | 73 | 224 | 0.0 | 2.0 | 0.00 | 0.00 | 0.00 | 94 | 1013.5 |
| 20260505091147 | 73 | 217 | 1.0 | 4.0 | 0.00 | 0.00 | 0.00 | 94 | 1013.8 |
| 20260505090644 | 73 | 230 | 1.0 | 7.0 | 0.00 | 0.00 | 0.00 | 94 | 1013.7 |
| 20260505090142 | 73 | 111 | 1.0 | 3.0 | 0.00 | 0.00 | 0.00 | 93 | 1013.6 |
| 20260505085639 | 73 | 268 | 0.0 | 5.0 | 0.00 | 0.00 | 0.00 | 93 | 1013.5 |
| 20260505085137 | 73 | 97 | 3.0 | 4.0 | 0.00 | 0.00 | 0.00 | 93 | 1013.6 |
| 20260505084635 | 73 | 154 | 0.0 | 4.0 | 0.00 | 0.00 | 0.00 | 92 | 1013.6 |
| 20260505084133 | 73 | 223 | 1.0 | 4.0 | 0.00 | 0.00 | 0.00 | 92 | 1013.5 |
| 20260505083630 | 73 | 214 | 0.0 | 5.0 | 0.00 | 0.00 | 0.00 | 92 | 1013.5 |
| 20260505083127 | 73 | 120 | 3.0 | 6.0 | 0.00 | 0.00 | 0.00 | 92 | 1013.6 |
| 20260505082623 | 73 | 304 | 0.0 | 3.0 | 0.00 | 0.00 | 0.00 | 92 | 1013.7 |
| 20260505082120 | 73 | 148 | 0.0 | 5.0 | 0.00 | 0.00 | 0.00 | 92 | 1013.6 |
| 20260505081616 | 73 | 119 | 3.0 | 5.0 | 0.00 | 0.00 | 0.00 | 92 | 1013.8 |
| 20260505081114 | 73 | 222 | 2.0 | 7.0 | 0.00 | 0.00 | 0.00 | 91 | 1013.7 |
| 20260505080609 | 73 | 240 | 0.0 | 5.0 | 0.00 | 0.00 | 0.00 | 91 | 1013.7 |
| 20260505080106 | 73 | 76 | 2.0 | 5.0 | 0.00 | 0.00 | 0.00 | 91 | 1013.8 |
| 20260505075602 | 73 | 125 | 1.0 | 9.0 | 0.00 | 0.00 | 0.00 | 91 | 1013.9 |
| 20260505075059 | 73 | 121 | 3.0 | 5.0 | 0.00 | 0.00 | 0.00 | 92 | 1013.8 |
| 20260505074556 | 73 | 118 | 2.0 | 3.0 | 0.00 | 0.00 | 0.00 | 91 | 1014.0 |
| 20260505074053 | 73 | 182 | 0.0 | 7.0 | 0.00 | 0.00 | 0.00 | 91 | 1014.0 |
| 20260505073550 | 73 | 235 | 4.0 | 5.0 | 0.00 | 0.00 | 0.00 | 91 | 1013.9 |
| 20260505073049 | 73 | 174 | 0.0 | 3.0 | 0.00 | 0.00 | 0.00 | 91 | 1014.0 |
| 20260505072549 | 73 | 207 | 0.0 | 3.0 | 0.00 | 0.00 | 0.00 | 91 | 1014.1 |
| 20260505072046 | 73 | 315 | 0.0 | 4.0 | 0.00 | 0.00 | 0.00 | 91 | 1014.0 |
| 20260505071542 | 73 | 208 | 0.0 | 5.0 | 0.00 | 0.00 | 0.00 | 91 | 1013.9 |
| 20260505071040 | 73 | 225 | 2.0 | 2.0 | 0.00 | 0.00 | 0.00 | 91 | 1014.2 |
| 20260505070537 | 73 | 89 | 0.0 | 3.0 | 0.00 | 0.00 | 0.00 | 91 | 1014.0 |
| 20260505070033 | 73 | 164 | 0.0 | 5.0 | 0.00 | 0.00 | 0.00 | 91 | 1014.1 |
| 20260505065529 | 72 | 266 | 2.0 | 4.0 | 0.00 | 0.00 | 0.00 | 91 | 1014.3 |
| 20260505065026 | 72 | 240 | 3.0 | 4.0 | 0.00 | 0.00 | 0.00 | 91 | 1014.4 |
| 20260505064523 | 72 | 142 | 1.0 | 6.0 | 0.00 | 0.00 | 0.00 | 91 | 1014.5 |
| 20260505064021 | 72 | 158 | 1.0 | 3.0 | 0.00 | 0.00 | 0.00 | 91 | 1014.7 |
| 20260505063518 | 72 | 59 | 2.0 | 3.0 | 0.00 | 0.00 | 0.00 | 91 | 1014.5 |
| 20260505063014 | 72 | 168 | 1.0 | 4.0 | 0.00 | 0.00 | 0.00 | 92 | 1014.9 |
| 20260505062511 | 71 | 192 | 1.0 | 2.0 | 0.00 | 0.00 | 0.00 | 91 | 1014.9 |
| 20260505062008 | 72 | 150 | 0.0 | 5.0 | 0.00 | 0.00 | 0.00 | 91 | 1015.0 |
| 20260505061506 | 71 | 197 | 1.0 | 4.0 | 0.00 | 0.00 | 0.00 | 91 | 1015.1 |
| 20260505061003 | 71 | 226 | 2.0 | 3.0 | 0.00 | 0.00 | 0.00 | 91 | 1015.0 |
| 20260505060500 | 71 | 172 | 1.0 | 4.0 | 0.00 | 0.00 | 0.00 | 91 | 1014.9 |
| 20260505055956 | 72 | 242 | 0.0 | 5.0 | 0.00 | 0.00 | 0.00 | 90 | 1014.8 |
| 20260505055452 | 72 | 180 | 1.0 | 5.0 | 0.00 | 0.00 | 0.00 | 90 | 1015.0 |
| 20260505054949 | 72 | 167 | 0.0 | 2.0 | 0.00 | 0.00 | 0.00 | 90 | 1015.1 |
| 20260505054447 | 72 | 199 | 1.0 | 6.0 | 0.00 | 0.00 | 0.00 | 90 | 1015.1 |
| 20260505053945 | 72 | 238 | 2.0 | 8.0 | 0.00 | 0.00 | 0.00 | 90 | 1015.0 |
| 20260505053441 | 72 | 217 | 1.0 | 3.0 | 0.00 | 0.00 | 0.00 | 90 | 1015.1 |
| 20260505052938 | 72 | 206 | 2.0 | 9.0 | 0.00 | 0.00 | 0.00 | 89 | 1015.1 |
| 20260505052435 | 72 | 269 | 0.0 | 7.0 | 0.00 | 0.00 | 0.00 | 89 | 1015.2 |
| 20260505051932 | 72 | 166 | 0.0 | 6.0 | 0.00 | 0.00 | 0.00 | 89 | 1015.3 |
| 20260505051429 | 72 | 178 | 1.0 | 5.0 | 0.00 | 0.00 | 0.00 | 89 | 1015.2 |
| 20260505050927 | 72 | 93 | 1.0 | 6.0 | 0.00 | 0.00 | 0.00 | 89 | 1015.2 |
| 20260505050425 | 72 | 124 | 3.0 | 5.0 | 0.00 | 0.00 | 0.00 | 89 | 1015.1 |
| 20260505041353 | 72 | 197 | 0.0 | 2.0 | 0.00 | 0.00 | 0.00 | 88 | 1015.6 |
| 20260505040850 | 72 | 207 | 1.0 | 4.0 | 0.00 | 0.00 | 0.00 | 87 | 1015.6 |
| 20260505040348 | 72 | 185 | 2.0 | 6.0 | 0.00 | 0.00 | 0.00 | 87 | 1015.8 |
| 20260505035844 | 72 | 235 | 0.0 | 3.0 | 0.00 | 0.00 | 0.00 | 87 | 1015.8 |
| 20260505035340 | 72 | 182 | 3.0 | 5.0 | 0.00 | 0.00 | 0.00 | 87 | 1015.9 |
| 20260505034838 | 72 | 168 | 2.0 | 3.0 | 0.00 | 0.00 | 0.00 | 87 | 1015.7 |
| 20260505034334 | 72 | 242 | 1.0 | 5.0 | 0.00 | 0.00 | 0.00 | 86 | 1015.9 |
| 20260505033831 | 72 | 158 | 1.0 | 7.0 | 0.00 | 0.00 | 0.00 | 86 | 1015.7 |
| 20260505033328 | 72 | 161 | 3.0 | 5.0 | 0.00 | 0.00 | 0.00 | 86 | 1015.6 |
| 20260505032826 | 72 | 183 | 1.0 | 4.0 | 0.00 | 0.00 | 0.00 | 85 | 1015.6 |
| 20260505032322 | 72 | 166 | 2.0 | 5.0 | 0.00 | 0.00 | 0.00 | 85 | 1015.6 |
| 20260505031820 | 72 | 245 | 0.0 | 3.0 | 0.00 | 0.00 | 0.00 | 85 | 1015.7 |
| 20260505031316 | 72 | 129 | 2.0 | 5.0 | 0.00 | 0.00 | 0.00 | 85 | 1015.8 |
| 20260505030813 | 72 | 146 | 2.0 | 5.0 | 0.00 | 0.00 | 0.00 | 84 | 1015.7 |
| 20260505030310 | 72 | 228 | 1.0 | 4.0 | 0.00 | 0.00 | 0.00 | 84 | 1015.8 |
| 20260505025804 | 72 | 142 | 3.0 | 5.0 | 0.00 | 0.00 | 0.00 | 84 | 1015.9 |
| 20260505025304 | 73 | 141 | 3.0 | 5.0 | 0.00 | 0.00 | 0.00 | 83 | 1015.9 |
| 20260505024801 | 72 | 188 | 2.0 | 4.0 | 0.00 | 0.00 | 0.00 | 83 | 1015.7 |
| 20260505024258 | 73 | 148 | 2.0 | 5.0 | 0.00 | 0.00 | 0.00 | 83 | 1015.7 |
| 20260505023755 | 73 | 180 | 0.0 | 9.0 | 0.00 | 0.00 | 0.00 | 83 | 1015.5 |
| 20260505023252 | 73 | 199 | 0.0 | 7.0 | 0.00 | 0.00 | 0.00 | 83 | 1015.7 |
| 20260505022749 | 73 | 137 | 3.0 | 7.0 | 0.00 | 0.00 | 0.00 | 83 | 1015.7 |
| 20260505022246 | 73 | 142 | 3.0 | 5.0 | 0.00 | 0.00 | 0.00 | 82 | 1015.7 |
| 20260505021743 | 73 | 256 | 0.0 | 4.0 | 0.00 | 0.00 | 0.00 | 82 | 1015.7 |
| 20260505021240 | 73 | 190 | 2.0 | 4.0 | 0.00 | 0.00 | 0.00 | 82 | 1015.7 |
| 20260505020736 | 73 | 183 | 0.0 | 3.0 | 0.00 | 0.00 | 0.00 | 82 | 1015.5 |
| 20260505020231 | 73 | 198 | 0.0 | 3.0 | 0.00 | 0.00 | 0.00 | 81 | 1015.7 |
| 20260505015729 | 74 | 182 | 0.0 | 6.0 | 0.00 | 0.00 | 0.00 | 81 | 1015.5 |
| 20260505015225 | 74 | 155 | 2.0 | 5.0 | 0.00 | 0.00 | 0.00 | 81 | 1015.6 |
| 20260505014722 | 74 | 202 | 2.0 | 9.0 | 0.00 | 0.00 | 0.00 | 81 | 1015.5 |
| 20260505014220 | 74 | 210 | 1.0 | 7.0 | 0.00 | 0.00 | 0.00 | 80 | 1015.3 |
| 20260505013716 | 74 | 166 | 1.0 | 5.0 | 0.00 | 0.00 | 0.00 | 81 | 1015.4 |
| 20260505013214 | 74 | 148 | 2.0 | 9.0 | 0.00 | 0.00 | 0.00 | 81 | 1015.4 |
| 20260505012712 | 74 | 104 | 7.0 | 9.0 | 0.00 | 0.00 | 0.00 | 80 | 1015.5 |
| 20260505012209 | 74 | 244 | 2.0 | 11.0 | 0.00 | 0.00 | 0.00 | 80 | 1015.7 |
| 20260505011704 | 74 | 87 | 5.0 | 11.0 | 0.00 | 0.00 | 0.00 | 80 | 1015.2 |
| 20260505011202 | 74 | 159 | 3.0 | 5.0 | 0.00 | 0.00 | 0.00 | 80 | 1015.5 |
| 20260505010657 | 74 | 114 | 0.0 | 4.0 | 0.00 | 0.00 | 0.00 | 79 | 1015.3 |
| 20260505010154 | 74 | 156 | 0.0 | 4.0 | 0.00 | 0.00 | 0.00 | 79 | 1015.4 |
| 20260505005650 | 74 | 184 | 1.0 | 6.0 | 0.00 | 0.00 | 0.00 | 79 | 1015.3 |
| 20260505005147 | 74 | 104 | 1.0 | 12.0 | 0.00 | 0.00 | 0.00 | 78 | 1015.1 |
| 20260505004644 | 74 | 147 | 2.0 | 8.0 | 0.00 | 0.00 | 0.00 | 78 | 1015.1 |
| 20260505004141 | 75 | 164 | 3.0 | 11.0 | 0.00 | 0.00 | 0.00 | 77 | 1015.1 |
| 20260505003638 | 75 | 139 | 2.0 | 6.0 | 0.00 | 0.00 | 0.00 | 77 | 1015.3 |
| 20260505003136 | 75 | 168 | 1.0 | 6.0 | 0.00 | 0.00 | 0.00 | 76 | 1015.2 |
| 20260505002631 | 75 | 224 | 3.0 | 9.0 | 0.00 | 0.00 | 0.00 | 75 | 1015.4 |
| 20260505002130 | 76 | 168 | 2.0 | 6.0 | 0.00 | 0.00 | 0.00 | 75 | 1015.3 |
| 20260505001626 | 76 | 168 | 3.0 | 10.0 | 0.00 | 0.00 | 0.00 | 74 | 1015.1 |
| 20260505001124 | 76 | 194 | 2.0 | 7.0 | 0.00 | 0.00 | 0.00 | 74 | 1015.4 |
| 20260505000621 | 77 | 142 | 5.0 | 11.0 | 0.00 | 0.00 | 0.00 | 73 | 1015.3 |
| 20260505000119 | 77 | 136 | 2.0 | 8.0 | 0.00 | 0.00 | 0.00 | 72 | 1015.4 |
| 20260504235615 | 78 | 211 | 3.0 | 6.0 | 0.00 | 0.00 | 0.00 | 72 | 1015.8 |
| 20260504235112 | 77 | 273 | 4.0 | 6.0 | 0.00 | 0.00 | 0.00 | 72 | 1015.4 |
| 20260504234609 | 77 | 204 | 1.0 | 8.0 | 0.00 | 0.00 | 0.00 | 73 | 1015.4 |
| 20260504234106 | 77 | 185 | 2.0 | 5.0 | 0.00 | 0.00 | 0.00 | 74 | 1015.5 |
| 20260504233601 | 77 | 219 | 3.0 | 12.0 | 0.00 | 0.00 | 0.00 | 73 | 1015.6 |
| 20260504233058 | 77 | 218 | 2.0 | 10.0 | 0.00 | 0.00 | 0.00 | 73 | 1015.5 |
| 20260504232555 | 78 | 195 | 5.0 | 9.0 | 0.00 | 0.00 | 0.00 | 72 | 1015.6 |
| 20260504232053 | 78 | 147 | 2.0 | 5.0 | 0.00 | 0.00 | 0.00 | 71 | 1015.7 |
| 20260504231549 | 78 | 249 | 4.0 | 10.0 | 0.00 | 0.00 | 0.00 | 72 | 1015.7 |
| 20260504231045 | 77 | 140 | 4.0 | 5.0 | 0.00 | 0.00 | 0.00 | 73 | 1015.9 |
| 20260504230541 | 77 | 161 | 4.0 | 12.0 | 0.00 | 0.00 | 0.00 | 73 | 1016.0 |
| 20260504230041 | 77 | 204 | 5.0 | 8.0 | 0.00 | 0.00 | 0.00 | 72 | 1016.0 |
| 20260504225537 | 78 | 160 | 3.0 | 10.0 | 0.00 | 0.00 | 0.00 | 71 | 1016.0 |
| 20260504225035 | 78 | 237 | 1.0 | 3.0 | 0.00 | 0.00 | 0.00 | 71 | 1015.9 |
| 20260504224531 | 77 | 258 | 2.0 | 5.0 | 0.00 | 0.00 | 0.00 | 72 | 1016.0 |
| 20260504224028 | 78 | 261 | 3.0 | 7.0 | 0.00 | 0.00 | 0.00 | 71 | 1016.0 |
| 20260504223525 | 78 | 88 | 2.0 | 10.0 | 0.00 | 0.00 | 0.00 | 71 | 1016.2 |
| 20260504223021 | 78 | 202 | 2.0 | 7.0 | 0.00 | 0.00 | 0.00 | 71 | 1016.1 |
| 20260504222518 | 78 | 208 | 3.0 | 9.0 | 0.00 | 0.00 | 0.00 | 70 | 1016.2 |
| 20260504222015 | 77 | 210 | 2.0 | 5.0 | 0.00 | 0.00 | 0.00 | 71 | 1016.3 |
| 20260504221513 | 77 | 209 | 2.0 | 7.0 | 0.00 | 0.00 | 0.00 | 71 | 1016.5 |
| 20260504221009 | 78 | 238 | 7.0 | 9.0 | 0.00 | 0.00 | 0.00 | 70 | 1016.5 |
| 20260504220506 | 78 | 144 | 2.0 | 7.0 | 0.00 | 0.00 | 0.00 | 70 | 1016.5 |
| 20260504220003 | 79 | 140 | 2.0 | 5.0 | 0.00 | 0.00 | 0.00 | 69 | 1016.6 |
| 20260504215459 | 79 | 229 | 2.0 | 5.0 | 0.00 | 0.00 | 0.00 | 69 | 1016.6 |
| 20260504214956 | 79 | 168 | 3.0 | 11.0 | 0.00 | 0.00 | 0.00 | 69 | 1016.6 |
| 20260504214452 | 78 | 215 | 1.0 | 7.0 | 0.00 | 0.00 | 0.00 | 69 | 1016.5 |
| 20260504213949 | 78 | 215 | 2.0 | 7.0 | 0.00 | 0.00 | 0.00 | 70 | 1016.7 |
| 20260504213445 | 78 | 97 | 3.0 | 16.0 | 0.00 | 0.00 | 0.00 | 69 | 1017.0 |
| 20260504212943 | 79 | 201 | 1.0 | 5.0 | 0.00 | 0.00 | 0.00 | 67 | 1016.7 |
| 20260504212438 | 80 | 180 | 2.0 | 10.0 | 0.00 | 0.00 | 0.00 | 66 | 1016.9 |
| 20260504211936 | 79 | 142 | 11.0 | 16.0 | 0.00 | 0.00 | 0.00 | 67 | 1016.8 |
| 20260504211432 | 79 | 240 | 3.0 | 18.0 | 0.00 | 0.00 | 0.00 | 67 | 1016.8 |
| 20260504210930 | 81 | 242 | 0.0 | 7.0 | 0.00 | 0.00 | 0.00 | 66 | 1016.8 |
| 20260504210427 | 81 | 254 | 2.0 | 6.0 | 0.00 | 0.00 | 0.00 | 64 | 1017.1 |
| 20260504205924 | 82 | 239 | 2.0 | 5.0 | 0.00 | 0.00 | 0.00 | 63 | 1016.9 |
| 20260504205421 | 83 | 210 | 2.0 | 9.0 | 0.00 | 0.00 | 0.00 | 61 | 1017.2 |
| 20260504204919 | 81 | 192 | 4.0 | 13.0 | 0.00 | 0.00 | 0.00 | 64 | 1016.8 |